Wind_Speed
18 19 18 18 17 17 17 16 16 16 16 16 16 15 15 15 16 17 17 17 17 16 16 16 17 17 17 16 16 16 16 16 16 16 16 16 16 17 17 18 19 19 19
19 19 19 18 18 18 18 17 17 17 17 17 17 17 16 17 17 17 18 18 17 18 18 18 18 18 18 18 18 18 17 17 17 17 17 17 17 17 17 18 18 19 19
20 20 20 19 19 19 18 18 18 18 18 19 18 18 18 17 18 18 18 18 19 18 19 19 19 19 19 18 19 19 19 18 18 18 18 18 19 19 19 19 19 19 19
20 20 20 19 20 19 19 18 18 18 19 19 19 18 18 18 18 18 18 19 19 19 20 19 19 19 18 19 19 19 19 19 20 20 19 20 20 20 20 20 21 21 20
21 20 20 20 21 20 20 20 20 19 19 18 19 19 19 20 20 20 20 20 20 20 21 21 20 20 19 19 20 20 21 21 21 20 20 20 20 20 20 20 20 21 21
21 21 21 21 21 21 21 21 21 20 20 20 20 20 21 21 21 21 21 21 21 21 21 21 22 22 21 21 21 21 21 22 22 22 21 21 20 21 21 21 21 21 22
22 21 21 21 21 21 21 22 22 22 21 20 20 20 20 22 22 22 22 22 22 21 22 22 22 23 22 22 22 22 22 23 22 23 23 22 21 21 21 21 22 22 22
21 21 21 22 22 22 22 22 22 21 21 21 20 21 21 21 22 23 23 23 22 22 22 22 22 23 23 23 23 23 23 24 24 23 23 22 22 22 22 22 23 22 23
21 21 21 22 22 22 22 21 22 21 21 21 22 22 22 22 23 23 23 22 22 22 22 22 22 22 23 23 23 23 23 23 23 23 23 23 23 23 22 22 23 24 24
21 21 21 21 21 22 22 21 21 21 21 22 22 23 23 23 23 23 24 23 23 23 23 23 23 23 23 23 23 23 23 23 23 23 23 24 24 23 23 23 24 25 25
20 20 20 21 21 21 21 21 21 22 22 23 23 24 23 23 23 23 24 24 24 24 24 24 24 24 24 24 24 24 24 23 23 23 24 23 24 24 24 25 25 26 26
20 20 20 20 21 22 22 22 22 22 22 22 23 23 23 24 24 24 24 24 24 24 24 24 24 24 24 24 25 25 25 25 25 25 25 25 25 25 25 25 26 27 27
20 20 21 21 21 21 21 21 21 21 21 22 22 23 24 24 25 25 25 24 24 24 24 25 25 25 25 25 25 25 25 25 26 26 26 26 26 26 26 26 26 26 27
20 20 21 21 21 21 21 21 21 21 22 22 22 23 23 24 24 25 25 25 25 25 25 25 25 25 25 25 25 25 26 26 26 26 27 27 27 27 27 27 26 26 26
20 20 19 19 20 21 21 21 22 22 22 21 22 22 23 23 24 24 25 25 25 25 26 25 25 25 25 25 25 25 26 26 27 27 27 27 28 28 27 27 27 27 26
20 20 19 19 19 20 21 21 21 22 22 22 22 21 22 23 23 24 24 24 25 25 26 26 26 26 26 26 26 26 26 26 26 26 27 27 27 27 27 27 27 26 26
20 19 19 20 20 19 19 20 20 20 20 21 21 21 22 22 24 24 24 24 24 25 25 25 25 25 25 25 26 26 26 27 27 27 27 27 27 27 26 26 27 27 27
19 19 19 19 19 19 19 19 19 19 20 20 20 20 21 22 22 23 24 24 23 23 23 23 23 24 24 25 26 26 27 28 28 28 28 27 27 27 26 26 26 27 27
18 18 18 19 19 19 19 18 19 19 19 19 20 20 20 20 21 22 22 23 23 23 23 23 23 23 24 25 26 27 27 28 28 28 28 27 27 26 26 26 26 26 27
19 19 19 19 20 20 20 20 20 19 18 19 19 19 19 19 20 20 21 23 23 22 22 22 23 24 25 25 25 26 27 27 28 28 28 28 27 27 27 26 26 26 26
20 20 20 20 21 21 21 21 20 19 19 19 19 18 19 19 20 20 20 20 21 20 20 21 23 23 24 25 25 25 25 26 27 27 27 26 27 26 26 26 26 26 26
21 21 21 21 21 21 21 20 19 19 19 19 18 18 18 19 19 20 20 20 20 20 20 21 21 22 23 23 24 24 24 25 25 26 26 26 26 27 27 27 27 27 26
20 20 20 21 20 20 20 19 18 18 19 19 19 19 20 20 20 20 20 20 20 20 21 22 22 22 22 23 23 23 24 24 25 26 27 27 27 27 27 27 27 26 26
20 20 20 21 21 20 20 19 19 19 19 19 19 19 19 19 20 20 20 20 20 21 21 22 22 22 22 23 24 24 25 25 25 26 27 27 27 27 27 27 27 27 27
21 20 20 21 21 21 20 19 19 19 19 19 19 19 19 19 19 20 20 20 20 21 21 21 21 22 22 22 23 24 24 24 24 24 25 26 26 26 27 27 27 26 26
21 20 20 20 20 20 19 19 19 19 19 19 19 19 19 18 18 18 19 19 20 20 21 21 21 21 21 21 22 23 23 23 23 24 24 25 25 26 27 27 27 27 27
Wind_Direction
282 278 277 278 279 280 280 278 275 273 273 273 272 265 262 260 259 260 260 263 263 261 261 259 257 256 257 258 258 258 259 259 260 263 264 265 267 266 266 263 261 261 262
284 280 277 277 278 279 278 275 276 276 275 271 270 265 261 260 261 261 260 262 262 261 261 260 259 258 259 260 260 259 259 258 259 262 265 267 269 268 266 263 262 263 263
285 282 281 279 277 278 276 275 276 276 276 272 269 266 262 262 262 263 262 262 261 260 258 259 258 258 258 259 259 260 260 259 260 263 265 268 270 269 267 266 267 264 262
285 282 281 279 278 277 276 276 276 276 275 272 269 267 264 262 262 263 262 261 260 259 258 259 260 259 259 258 258 259 260 261 261 263 265 267 269 268 267 268 266 264 261
285 283 281 279 277 275 274 275 275 275 273 272 269 267 265 263 263 263 263 262 262 260 261 259 261 262 261 259 258 259 260 261 261 262 264 265 267 268 267 267 266 263 262
284 282 281 278 275 272 271 271 271 271 271 271 270 268 266 265 264 263 263 263 262 262 262 260 260 261 263 261 259 259 260 260 260 261 263 263 264 267 267 267 266 264 263
281 280 280 277 275 273 271 270 270 269 268 268 268 269 267 266 266 264 262 261 262 263 263 261 260 260 261 260 260 260 261 260 260 262 261 262 263 265 266 266 265 264 263
281 279 278 276 275 272 271 270 269 267 268 269 269 270 269 267 266 265 263 262 262 263 264 264 264 263 261 261 262 262 262 261 261 261 263 264 265 266 267 266 264 262 262
280 279 277 274 274 273 272 271 268 265 266 268 269 269 268 267 266 265 264 263 262 262 263 264 265 265 263 263 262 261 261 261 261 261 263 264 264 265 266 266 264 263 262
281 279 277 276 275 274 274 275 271 266 266 268 268 267 266 266 266 265 264 263 263 263 263 264 265 265 265 263 261 260 259 259 261 262 263 265 265 265 265 265 265 266 265
281 279 277 276 276 277 276 275 273 270 268 267 268 267 266 267 267 265 264 263 263 263 263 263 265 267 268 266 263 260 259 260 261 262 264 265 266 266 267 267 268 268 269
280 279 278 277 277 277 276 275 272 271 270 269 270 270 269 269 267 267 267 265 264 262 262 262 263 265 267 267 265 261 260 261 262 262 264 266 267 267 267 269 270 270 270
281 280 280 280 278 276 275 274 275 274 273 272 271 270 271 269 269 268 267 268 268 265 264 263 263 264 265 266 266 265 263 262 262 262 263 265 267 267 268 270 270 270 269
280 280 281 280 279 277 276 276 276 276 275 273 270 270 269 267 267 267 267 268 268 266 265 265 265 264 264 265 265 265 265 264 263 263 264 266 267 268 270 271 270 270 270
282 281 280 281 280 279 277 277 277 277 276 274 271 269 268 267 266 267 268 270 269 267 266 265 265 264 264 265 265 265 265 265 265 265 266 267 268 268 269 270 270 269 269
285 281 280 282 284 282 279 279 279 279 277 274 273 272 269 267 266 267 269 270 269 269 268 266 266 266 264 264 263 263 264 265 265 266 266 267 268 268 268 269 269 268 267
283 282 282 283 284 284 282 281 281 280 278 275 274 273 273 273 270 269 270 272 272 270 269 267 266 266 265 264 262 262 263 264 265 267 268 268 267 268 268 268 268 267 266
281 281 282 285 285 283 282 282 280 280 279 279 277 275 274 274 273 272 271 271 273 272 270 269 267 266 266 265 263 263 263 263 264 267 269 269 268 268 267 268 268 268 268
282 282 283 285 285 284 282 281 281 282 280 280 279 277 276 275 275 274 273 274 273 273 272 270 270 269 268 267 266 265 264 265 265 267 268 267 267 268 268 269 269 270 269
281 282 285 286 286 285 282 282 282 282 283 282 280 279 278 277 276 277 275 275 273 273 272 272 271 271 270 267 266 265 265 266 267 268 266 265 266 266 265 267 269 270 269
282 282 283 284 286 284 284 284 283 281 283 284 282 281 281 280 277 278 278 278 277 274 272 271 271 271 271 270 269 268 268 267 268 267 265 264 264 265 264 265 268 270 270
280 281 283 284 286 285 285 286 284 283 284 285 283 284 284 283 281 280 279 277 276 275 274 274 274 274 275 274 271 269 269 268 267 265 264 263 263 264 264 265 266 267 269
278 280 283 284 285 287 288 287 284 282 283 284 284 284 284 284 285 282 279 278 278 277 277 277 277 276 274 273 272 271 271 269 268 269 267 264 263 264 264 264 265 267 267
279 280 282 283 284 286 287 287 285 283 283 284 284 285 284 283 283 283 280 280 281 282 281 280 278 277 276 275 275 274 273 270 268 268 267 265 263 263 263 263 264 266 267
277 278 280 282 282 282 283 284 285 285 285 286 286 285 284 283 283 285 283 283 283 283 282 282 280 279 277 276 276 275 273 270 268 268 267 265 264 263 264 265 265 265 266
275 277 280 283 283 283 283 283 283 283 285 287 287 288 286 284 283 286 287 286 286 286 285 284 285 284 282 279 278 276 273 271 270 269 269 269 268 267 265 265 265 266 266
Height
5823 5823 5822 5821 5820 5820 5819 5818 5818 5817 5817 5817 5817 5818 5818 5818 5819 5820 5821 5822 5822 5823 5823 5824 5825 5825 5826 5826 5827 5827 5828 5828 5828 5828 5828 5828 5827 5827 5827 5826 5826 5827 5827
5817 5817 5816 5816 5815 5815 5814 5813 5813 5812 5812 5812 5812 5813 5813 5814 5815 5815 5815 5816 5816 5817 5818 5819 5819 5820 5821 5821 5821 5822 5822 5822 5823 5823 5823 5822 5822 5822 5822 5822 5821 5821 5821
5812 5811 5810 5810 5809 5809 5808 5808 5808 5807 5807 5807 5807 5807 5808 5809 5810 5810 5810 5811 5811 5812 5813 5813 5814 5814 5815 5815 5816 5816 5816 5817 5817 5817 5817 5817 5817 5816 5816 5816 5816 5816 5816
5806 5805 5805 5804 5804 5804 5803 5803 5802 5802 5801 5801 5801 5802 5802 5803 5804 5804 5805 5805 5806 5806 5807 5807 5807 5809 5809 5809 5810 5810 5811 5811 5811 5811 5811 5811 5811 5811 5810 5810 5810 5810 5810
5800 5800 5799 5799 5798 5798 5797 5797 5796 5796 5796 5796 5796 5796 5797 5797 5798 5799 5799 5800 5800 5801 5801 5801 5802 5803 5803 5803 5804 5804 5805 5805 5805 5805 5805 5805 5805 5804 5804 5804 5804 5803 5803
5794 5794 5793 5793 5792 5791 5791 5791 5790 5790 5790 5790 5790 5790 5790 5791 5792 5792 5793 5794 5794 5795 5795 5795 5796 5796 5797 5797 5797 5797 5798 5798 5798 5798 5799 5799 5799 5798 5798 5797 5797 5797 5797
5788 5787 5787 5786 5786 5785 5785 5784 5784 5784 5783 5783 5784 5784 5784 5785 5785 5786 5787 5787 5788 5788 5788 5789 5789 5790 5790 5790 5790 5790 5791 5791 5791 5792 5792 5792 5792 5792 5791 5791 5790 5790 5790
5782 5781 5780 5779 5779 5778 5778 5777 5777 5777 5777 5777 5778 5778 5778 5778 5779 5779 5780 5780 5781 5781 5782 5782 5782 5782 5783 5783 5783 5784 5784 5784 5784 5784 5785 5785 5785 5785 5785 5784 5784 5784 5784
5776 5775 5774 5773 5773 5772 5771 5771 5770 5770 5771 5771 5771 5771 5771 5772 5772 5772 5773 5773 5774 5774 5775 5775 5775 5775 5776 5776 5777 5777 5777 5777 5777 5777 5778 5778 5778 5778 5777 5777 5777 5777 5777
5769 5768 5768 5767 5766 5766 5765 5764 5763 5763 5764 5764 5764 5764 5765 5765 5765 5765 5766 5767 5767 5768 5768 5768 5769 5769 5768 5768 5769 5769 5770 5770 5770 5771 5771 5771 5770 5770 5770 5770 5770 5770 5769
5763 5762 5761 5760 5760 5759 5759 5758 5758 5758 5758 5758 5758 5757 5758 5758 5758 5758 5758 5759 5760 5760 5761 5761 5761 5761 5761 5761 5762 5762 5762 5763 5763 5763 5764 5763 5763 5762 5762 5762 5762 5762 5762
5757 5755 5755 5754 5753 5753 5752 5752 5752 5751 5751 5751 5751 5751 5751 5751 5751 5751 5751 5752 5752 5753 5753 5754 5754 5754 5754 5754 5754 5755 5755 5755 5756 5756 5756 5756 5756 5755 5754 5754 5753 5753 5753
5750 5749 5748 5747 5747 5746 5745 5745 5745 5745 5745 5744 5744 5744 5744 5744 5744 5744 5744 5745 5745 5745 5746 5746 5746 5746 5746 5746 5747 5747 5747 5748 5748 5748 5748 5748 5748 5747 5746 5746 5745 5745 5744
5744 5743 5742 5741 5740 5740 5739 5738 5738 5738 5737 5737 5737 5737 5736 5736 5736 5737 5737 5737 5737 5737 5738 5738 5738 5738 5738 5738 5738 5739 5739 5739 5739 5740 5740 5740 5739 5739 5738 5737 5737 5736 5736
5738 5737 5736 5735 5734 5733 5733 5732 5731 5731 5730 5730 5729 5729 5729 5729 5729 5729 5729 5729 5729 5729 5729 5729 5729 5730 5730 5730 5730 5730 5730 5730 5731 5731 5731 5731 5731 5730 5730 5729 5728 5728 5727
5732 5731 5730 5729 5728 5727 5726 5726 5724 5724 5723 5722 5722 5721 5721 5721 5721 5721 5721 5721 5721 5720 5720 5721 5721 5721 5721 5721 5721 5722 5722 5722 5722 5722 5722 5722 5722 5722 5721 5720 5720 5719 5719
5726 5725 5724 5723 5722 5721 5720 5719 5718 5717 5716 5715 5714 5714 5713 5713 5713 5712 5712 5712 5712 5712 5712 5712 5712 5712 5712 5712 5713 5713 5714 5714 5713 5714 5714 5714 5713 5713 5713 5712 5711 5711 5711
5720 5719 5718 5717 5716 5715 5714 5713 5712 5711 5710 5708 5707 5706 5706 5705 5705 5704 5704 5704 5704 5704 5704 5703 5703 5703 5704 5704 5704 5705 5705 5705 5705 5705 5705 5705 5704 5704 5704 5704 5703 5703 5702
5714 5713 5712 5711 5710 5709 5708 5707 5706 5705 5703 5702 5701 5700 5699 5698 5698 5697 5696 5696 5696 5696 5696 5696 5695 5695 5695 5695 5695 5695 5696 5696 5696 5696 5696 5696 5696 5695 5695 5695 5695 5695 5694
5708 5707 5706 5705 5704 5703 5702 5701 5700 5698 5697 5696 5695 5694 5693 5692 5691 5690 5690 5689 5688 5688 5687 5687 5687 5687 5687 5687 5686 5686 5686 5686 5686 5686 5686 5686 5686 5686 5687 5686 5686 5686 5686
5702 5701 5700 5699 5698 5697 5696 5694 5693 5692 5691 5690 5688 5687 5687 5686 5685 5684 5682 5681 5680 5679 5679 5679 5679 5679 5679 5678 5678 5677 5677 5677 5677 5677 5677 5677 5677 5677 5678 5678 5678 5677 5677
5696 5695 5694 5693 5692 5690 5689 5688 5686 5685 5684 5683 5682 5681 5680 5679 5678 5677 5676 5675 5673 5673 5672 5672 5671 5671 5670 5669 5669 5669 5668 5668 5668 5667 5667 5667 5668 5668 5668 5669 5669 5668 5668
5689 5689 5688 5686 5685 5684 5682 5681 5680 5679 5678 5677 5676 5675 5673 5672 5671 5669 5669 5668 5667 5666 5665 5664 5663 5662 5662 5661 5661 5660 5660 5660 5659 5658 5658 5658 5658 5659 5659 5660 5660 5660 5659
5682 5682 5681 5680 5679 5677 5676 5675 5674 5673 5672 5670 5669 5668 5667 5665 5664 5662 5661 5660 5659 5658 5657 5656 5655 5655 5654 5653 5653 5652 5651 5651 5650 5650 5649 5649 5650 5650 5650 5650 5651 5651 5651
5675 5675 5674 5673 5672 5671 5670 5668 5667 5666 5665 5664 5663 5661 5660 5658 5657 5656 5655 5653 5652 5651 5650 5649 5648 5647 5646 5645 5644 5644 5643 5642 5642 5641 5641 5640 5640 5641 5641 5641 5642 5642 5642
5668 5668 5667 5666 5665 5664 5663 5662 5661 5660 5659 5658 5656 5655 5654 5652 5651 5650 5648 5647 5646 5645 5643 5642 5641 5639 5638 5637 5636 5635 5635 5634 5633 5633 5632 5632 5632 5632 5632 5633 5633 5633 5633